When you browse on this site, cookies collect data to enhance your experience and personalize the content and advertising you see.
Visit our Privacy Policy to learn more. By continuing to use the site, you agree to this use of cookies and data.
  • In United Kingdom
  • List of Countries
  • For 7 days
  • Water Temperature
  • Weather Map
  • Weather Widgets
  • user-avatar
    Login

    Hourly Weather Mons

    Today, 19 October, Saturday

    Time Temperature Precipitation Wind Pressure Humidity
    00:00 +11°C° 0 mm 6 mps 751 mmHg 73%
    01:00 +11°C° 0.1 mm 6 mps 751 mmHg 77%
    02:00 +12°C° 0.1 mm 5 mps 751 mmHg 81%
    03:00 +12°C° 0.1 mm 5 mps 750 mmHg 85%
    04:00 +12°C° 0.3 mm 5 mps 750 mmHg 86%
    05:00 +12°C° 0.3 mm 5 mps 750 mmHg 88%
    06:00 +11°C° 0.3 mm 6 mps 750 mmHg 89%
    07:00 +12°C° 0.3 mm 5 mps 750 mmHg 90%
    08:00 +12°C° 0.3 mm 5 mps 750 mmHg 90%
    09:00 +12°C° 0.3 mm 5 mps 750 mmHg 90%
    10:00 +13°C° 0.2 mm 5 mps 750 mmHg 86%
    11:00 +14°C° 0.2 mm 5 mps 750 mmHg 82%
    12:00 +15°C° 0.2 mm 5 mps 750 mmHg 77%
    13:00 +15°C° 0.1 mm 5 mps 750 mmHg 78%
    14:00 +15°C° 0.1 mm 4 mps 750 mmHg 78%
    15:00 +14°C° 0.1 mm 4 mps 750 mmHg 79%
    16:00 +13°C° 0.1 mm 3 mps 751 mmHg 82%
    17:00 +12°C° 0.1 mm 3 mps 751 mmHg 86%
    18:00 +12°C° 0.1 mm 2 mps 751 mmHg 90%
    19:00 +12°C° 0 mm 2 mps 751 mmHg 90%
    20:00 +11°C° 0 mm 3 mps 752 mmHg 91%
    21:00 +11°C° 0 mm 3 mps 752 mmHg 92%
    22:00 +12°C° 0 mm 2 mps 752 mmHg 93%
    23:00 +12°C° 0 mm 2 mps 752 mmHg 93%

    Tomorrow, 20 October, Sunday

    Time Temperature Precipitation Wind Pressure Humidity
    00:00 +12°C° 0 mm 2 mps 752 mmHg 94%
    01:00 +12°C° 0.2 mm 1 mps 752 mmHg 94%
    02:00 +12°C° 0.2 mm 1 mps 752 mmHg 95%
    03:00 +12°C° 0.2 mm 1 mps 752 mmHg 95%
    04:00 +12°C° 1.2 mm 1 mps 752 mmHg 95%
    05:00 +12°C° 1.2 mm 1 mps 752 mmHg 96%
    06:00 +12°C° 1.2 mm 1 mps 752 mmHg 96%
    07:00 +12°C° 0.2 mm 2 mps 752 mmHg 96%
    08:00 +12°C° 0.2 mm 2 mps 752 mmHg 95%
    09:00 +12°C° 0.2 mm 2 mps 752 mmHg 95%
    10:00 +11°C° 1.4 mm 3 mps 752 mmHg 95%
    11:00 +11°C° 1.4 mm 4 mps 752 mmHg 95%
    12:00 +10°C° 1.4 mm 5 mps 752 mmHg 95%
    13:00 +10°C° 1.9 mm 6 mps 752 mmHg 94%
    14:00 +10°C° 1.9 mm 6 mps 752 mmHg 94%
    15:00 +10°C° 1.9 mm 6 mps 751 mmHg 94%
    16:00 +10°C° 0.4 mm 6 mps 752 mmHg 93%
    17:00 +10°C° 0.4 mm 6 mps 752 mmHg 93%
    18:00 +10°C° 0.4 mm 6 mps 752 mmHg 93%
    19:00 +10°C° 0.2 mm 6 mps 752 mmHg 94%
    20:00 +10°C° 0.2 mm 5 mps 752 mmHg 94%
    21:00 +11°C° 0.2 mm 4 mps 752 mmHg 95%
    22:00 +11°C° 0.8 mm 4 mps 752 mmHg 96%
    23:00 +12°C° 0.8 mm 3 mps 752 mmHg 97%

    Day after tomorrow, 21 October, Monday

    Time Temperature Precipitation Wind Pressure Humidity
    00:00 +13°C° 0.8 mm 2 mps 752 mmHg 97%
    01:00 +12°C° 0.5 mm 3 mps 752 mmHg 97%
    02:00 +12°C° 0.5 mm 3 mps 752 mmHg 97%
    03:00 +12°C° 0.5 mm 3 mps 752 mmHg 96%
    04:00 +12°C° 0.1 mm 3 mps 753 mmHg 96%
    05:00 +11°C° 0.1 mm 3 mps 753 mmHg 95%
    06:00 +11°C° 0.1 mm 3 mps 753 mmHg 95%
    07:00 +11°C° 0 mm 4 mps 754 mmHg 91%
    08:00 +12°C° 0 mm 5 mps 754 mmHg 87%
    09:00 +13°C° 0 mm 5 mps 754 mmHg 84%
    10:00 +13°C° 0 mm 5 mps 755 mmHg 84%
    11:00 +13°C° 0 mm 4 mps 755 mmHg 85%
    12:00 +13°C° 0 mm 4 mps 756 mmHg 85%
    13:00 +13°C° 0.2 mm 4 mps 756 mmHg 85%
    14:00 +13°C° 0.2 mm 5 mps 756 mmHg 84%
    15:00 +13°C° 0.2 mm 5 mps 757 mmHg 83%
    16:00 +13°C° 0 mm 5 mps 757 mmHg 85%
    17:00 +12°C° 0 mm 5 mps 758 mmHg 86%
    18:00 +12°C° 0 mm 5 mps 758 mmHg 87%
    19:00 +10°C° 0 mm 5 mps 759 mmHg 89%
    20:00 +11°C° 0 mm 4 mps 759 mmHg 91%
    21:00 +11°C° 0 mm 4 mps 760 mmHg 93%
    22:00 +11°C° 0 mm 4 mps 760 mmHg 93%
    23:00 +11°C° 0 mm 4 mps 760 mmHg 93%

    22 October, Tuesday

    Time Temperature Precipitation Wind Pressure Humidity
    00:00 +11°C° 0 mm 4 mps 761 mmHg 93%
    01:00 +11°C° 0 mm 3 mps 761 mmHg 94%
    02:00 +11°C° 0 mm 3 mps 761 mmHg 94%
    03:00 +11°C° 0 mm 3 mps 762 mmHg 95%
    04:00 +11°C° 0 mm 3 mps 762 mmHg 96%
    05:00 +11°C° 0 mm 3 mps 762 mmHg 96%
    06:00 +11°C° 0 mm 3 mps 763 mmHg 97%
    07:00 +11°C° 0 mm 3 mps 763 mmHg 95%
    08:00 +12°C° 0 mm 3 mps 763 mmHg 93%
    09:00 +12°C° 0 mm 3 mps 764 mmHg 90%
    10:00 +13°C° 0.2 mm 3 mps 764 mmHg 86%
    11:00 +14°C° 0.2 mm 3 mps 764 mmHg 82%
    12:00 +16°C° 0.2 mm 3 mps 764 mmHg 78%
    13:00 +14°C° 0.2 mm 3 mps 764 mmHg 79%
    14:00 +15°C° 0.2 mm 2 mps 764 mmHg 81%
    15:00 +15°C° 0.2 mm 2 mps 764 mmHg 82%
    16:00 +14°C° 0.1 mm 2 mps 764 mmHg 86%
    17:00 +13°C° 0.1 mm 1 mps 764 mmHg 90%
    18:00 +11°C° 0.1 mm 1 mps 764 mmHg 93%
    19:00 +11°C° 0 mm 1 mps 764 mmHg 94%
    20:00 +10°C° 0 mm 1 mps 764 mmHg 94%
    21:00 +10°C° 0 mm 1 mps 764 mmHg 95%
    22:00 +10°C° 0 mm 1 mps 764 mmHg 95%
    23:00 +10°C° 0 mm 1 mps 763 mmHg 95%

    23 October, Wednesday

    Time Temperature Precipitation Wind Pressure Humidity
    00:00 +9°C° 0 mm 1 mps 763 mmHg 95%
    01:00 +9°C° 0 mm 1 mps 763 mmHg 95%
    02:00 +9°C° 0 mm 1 mps 763 mmHg 94%
    03:00 +9°C° 0 mm 1 mps 762 mmHg 94%
    04:00 +9°C° 0 mm 1 mps 762 mmHg 94%
    05:00 +9°C° 0 mm 1 mps 762 mmHg 93%
    06:00 +8°C° 0 mm 1 mps 761 mmHg 93%
    07:00 +10°C° 0 mm 1 mps 761 mmHg 90%
    08:00 +11°C° 0 mm 1 mps 761 mmHg 86%
    09:00 +13°C° 0 mm 1 mps 760 mmHg 83%
    10:00 +14°C° 0 mm 1 mps 760 mmHg 77%
    11:00 +15°C° 0 mm 2 mps 760 mmHg 71%
    12:00 +16°C° 0 mm 2 mps 760 mmHg 65%
    13:00 +18°C° 0 mm 1 mps 759 mmHg 66%
    14:00 +18°C° 0 mm 1 mps 758 mmHg 68%
    15:00 +18°C° 0 mm 1 mps 758 mmHg 69%
    16:00 +16°C° 0 mm 1 mps 757 mmHg 73%
    17:00 +14°C° 0 mm 1 mps 757 mmHg 78%
    18:00 +13°C° 0 mm 1 mps 757 mmHg 82%
    19:00 +13°C° 0 mm 1 mps 757 mmHg 84%
    20:00 +13°C° 0 mm 1 mps 756 mmHg 86%
    21:00 +13°C° 0 mm 1 mps 756 mmHg 88%
    22:00 +13°C° 0 mm 1 mps 756 mmHg 89%
    23:00 +12°C° 0 mm 1 mps 756 mmHg 90%

    24 October, Thursday

    Time Temperature Precipitation Wind Pressure Humidity
    00:00 +12°C° 0 mm 1 mps 755 mmHg 91%
    01:00 +13°C° 0 mm 1 mps 755 mmHg 90%
    02:00 +13°C° 0 mm 1 mps 755 mmHg 89%
    03:00 +13°C° 0 mm 1 mps 755 mmHg 88%
    04:00 +13°C° 0 mm 1 mps 755 mmHg 88%
    05:00 +13°C° 0 mm 1 mps 755 mmHg 89%
    06:00 +13°C° 0 mm 1 mps 755 mmHg 89%
    07:00 +14°C° 0 mm 1 mps 755 mmHg 88%
    08:00 +14°C° 0 mm 1 mps 755 mmHg 86%
    09:00 +15°C° 0 mm 1 mps 755 mmHg 85%
    10:00 +16°C° 0 mm 1 mps 755 mmHg 81%
    11:00 +17°C° 0 mm 2 mps 755 mmHg 77%
    12:00 +19°C° 0 mm 2 mps 755 mmHg 73%
    13:00 +19°C° 0 mm 2 mps 755 mmHg 74%
    14:00 +19°C° 0 mm 2 mps 755 mmHg 75%
    15:00 +19°C° 0 mm 3 mps 755 mmHg 76%
    16:00 +17°C° 0 mm 2 mps 755 mmHg 81%
    17:00 +16°C° 0 mm 2 mps 755 mmHg 86%
    18:00 +14°C° 0 mm 2 mps 756 mmHg 91%
    19:00 +13°C° 0 mm 2 mps 756 mmHg 91%
    20:00 +13°C° 0 mm 2 mps 757 mmHg 90%
    21:00 +12°C° 0 mm 2 mps 757 mmHg 89%
    22:00 +12°C° 0 mm 2 mps 758 mmHg 91%
    23:00 +10°C° 0 mm 2 mps 758 mmHg 92%
    Show more